Content
SEND FEEDBACK

Daily
Averages
Monthly
Summary
United States of America

PYGA BEACH, GUAM


Home > North America > United States > Guam
Elevation: 6 meters     Latitude: 13 17N     Longitude: 144 39E

WEATHER
 
SELECT A DAY
Number of Records: 342,166;   Date Range: 1/1/95 - 8/12/14
 
SHARE

PRINT THIS DATA

[ ← Previous Day ]
WEATHER ALMANAC - 4 MAY, 2014
[ Next Day → ]
[ °F ]   °C
Weather ElementAverageHighLow
Temperature27.2 °C29.3 °C (2:58 pm)25 °C (5:08 am)
Dewpoint24.4 °C26 °C (12:05 pm)23 °C (5:08 am)
Humidity85.2 %94 % (3:18 am)74 % (2:38 pm)
Barometer1012.2 hPa1014.9 hPa (10:03 pm)1010.2 hPa (2:58 pm)
Wind Speed17.7 km/h27.8 km/h (5:09 am)
Wind Gust31.5 km/h (5:03 am)
Weather ElementAverage
Visibility15.8 km
Wind DirectionESE (103.1 °)

Weather ElementTotal
Precipitation1.02 mm
Cooling Degree Days8.8 (Base 18.3)
Growing Degree Days17.2 (Base 10)
Averaged from 110 records on 4 May, 2014
WEATHER CONDITIONS BREAKOUT
WIND DIRECTION BREAKOUT
WEATHER BY HOUR - 4 MAY, 2014
[ °F ]   °C
Local TimeTemperatureDewpointHumidityBarometerVisibilityWind DirectionWind SpeedGust SpeedPrecipitationEventsConditions
12:08 AM27 °C24 °C84 %1012.9 hPa16.1 kmESE (110°)14.8 km/hMostly Cloudy
12:13 AM27 °C24 °C84 %1012.9 hPa16.1 kmEast (100°)16.7 km/hMostly Cloudy
12:23 AM26 °C24 °C89 %1012.5 hPa16.1 kmEast (100°)16.7 km/hScattered Clouds
12:38 AM27 °C24 °C84 %1012.5 hPa16.1 kmEast (100°)16.7 km/hMostly Cloudy
12:48 AM27 °C24 °C84 %1012.5 hPa16.1 kmEast (100°)18.5 km/hMostly Cloudy
12:53 AM27 °C24 °C84 %1012.5 hPa16.1 kmESE (110°)18.5 km/hMostly Cloudy
12:58 AM26.5 °C23.7 °C84 %1011.5 hPa16.1 kmESE (110°)16.7 km/hMostly Cloudy
1:08 AM26 °C24 °C89 %1012.2 hPa16.1 kmEast (100°)18.5 km/hScattered Clouds
1:23 AM26 °C24 °C89 %1012.5 hPa16.1 kmEast (100°)16.7 km/hMostly Cloudy
1:28 AM26 °C24 °C89 %1012.2 hPa16.1 kmEast (100°)16.7 km/hScattered Clouds
1:58 AM26.4 °C23.7 °C85 %1011.2 hPa16.1 kmESE (110°)14.8 km/hPartly Cloudy
2:13 AM26 °C24 °C89 %1012.2 hPa16.1 kmEast (100°)14.8 km/hMostly Cloudy
2:18 AM26 °C24 °C89 %1012.2 hPa16.1 kmESE (110°)14.8 km/hMostly Cloudy
2:23 AM26 °C24 °C89 %1011.9 hPa16.1 kmEast (100°)16.7 km/hMostly Cloudy
2:28 AM26 °C24 °C89 %1011.9 hPa16.1 kmEast (100°)14.8 km/hMostly Cloudy
2:38 AM26 °C24 °C89 %1011.9 hPa16.1 kmESE (110°)13 km/hMostly Cloudy
2:43 AM26 °C24 °C89 %1011.9 hPa16.1 kmEast (100°)13 km/hMostly Cloudy
2:53 AM26 °C24 °C89 %1011.9 hPa16.1 kmEast (100°)11.1 km/hMostly Cloudy
2:58 AM26.3 °C23.8 °C86 %1011.2 hPa16.1 kmEast (90°)14.8 km/hMostly Cloudy
3:18 AM26 °C25 °C94 %1011.5 hPa16.1 kmEast (90°)18.5 km/hMostly Cloudy
3:28 AM26 °C24 °C89 %1011.5 hPa16.1 kmEast (90°)14.8 km/hMostly Cloudy
3:33 AM26 °C24 °C89 %1011.9 hPa16.1 kmEast (80°)16.7 km/hMostly Cloudy
3:43 AM26 °C24 °C89 %1011.5 hPa16.1 kmEast (90°)16.7 km/hMostly Cloudy
3:58 AM26 °C24 °C89 %1010.5 hPa16.1 kmEast (90°)16.7 km/hOvercast
4:18 AM26 °C24 °C89 %1011.5 hPa16.1 kmEast (100°)13 km/hMostly Cloudy
4:23 AM26 °C25 °C94 %1011.5 hPa16.1 kmEast (90°)13 km/hMostly Cloudy
4:28 AM26 °C25 °C94 %1011.5 hPa16.1 kmEast (100°)14.8 km/hMostly Cloudy
4:38 AM26 °C25 °C94 %1011.5 hPa16.1 kmEast (90°)13 km/hMostly Cloudy
4:48 AM26 °C24 °C89 %1011.5 hPa16.1 kmEast (80°)16.7 km/hMostly Cloudy
4:53 AM26 °C24 °C89 %1011.5 hPa16.1 kmEast (90°)16.7 km/hMostly Cloudy
4:58 AM25.9 °C23.9 °C89 %1010.5 hPa16.1 kmEast (90°)16.7 km/hMostly Cloudy
5:03 AM26 °C24 °C89 %1011.9 hPa16.1 kmESE (120°)25.9 km/h31.5 km/hMostly Cloudy
5:08 AM25 °C23 °C89 %1011.9 hPa16.1 kmSE (130°)24.1 km/h31.5 km/hMostly Cloudy
5:09 AM25 °C23 °C89 %1011.9 hPa16.1 kmSE (140°)27.8 km/hRainLight Rain
5:14 AM25 °C23 °C89 %1011.9 hPa16.1 kmSE (140°)20.4 km/h31.5 km/hRainLight Rain
5:22 AM25 °C24 °C94 %1011.9 hPa16.1 kmSE (130°)14.8 km/hMostly Cloudy
5:27 AM25 °C24 °C94 %1011.5 hPa16.1 kmSE (130°)13 km/hMostly Cloudy
5:58 AM25.8 °C23.9 °C89 %1010.5 hPa16.1 kmESE (110°)18.5 km/h0 mmScattered Clouds
6:28 AM26 °C24 °C89 %1011.9 hPa16.1 kmEast (100°)20.4 km/hMostly Cloudy
6:38 AM26 °C24 °C89 %1012.2 hPa16.1 kmEast (100°)18.5 km/hMostly Cloudy
6:48 AM26 °C24 °C89 %1011.9 hPa16.1 kmEast (100°)20.4 km/hMostly Cloudy
6:58 AM26.4 °C24.3 °C88 %1011.2 hPa16.1 kmEast (90°)20.4 km/hScattered Clouds
7:18 AM27 °C24 °C84 %1012.2 hPa16.1 kmEast (100°)20.4 km/hMostly Cloudy
7:53 AM27 °C25 °C89 %1012.9 hPa16.1 kmESE (110°)16.7 km/hMostly Cloudy
7:58 AM27 °C25 °C89 %1011.9 hPa16.1 kmESE (110°)14.8 km/hMostly Cloudy
8:03 AM27 °C25 °C89 %1012.9 hPa16.1 kmESE (120°)16.7 km/hMostly Cloudy
8:08 AM28 °C25 °C84 %1012.9 hPa16.1 kmESE (110°)16.7 km/hScattered Clouds
8:58 AM27.8 °C24.5 °C82 %1012.2 hPa16.1 kmEast (100°)18.5 km/hScattered Clouds
9:13 AM29 °C25 °C79 %1013.5 hPa16.1 kmEast (90°)22.2 km/hMostly Cloudy
9:23 AM29 °C25 °C79 %1013.5 hPa16.1 kmESE (110°)18.5 km/hScattered Clouds
9:33 AM29 °C25 °C79 %1013.5 hPa16.1 kmEast (90°)16.7 km/hMostly Cloudy
9:38 AM28 °C25 °C84 %1013.5 hPa16.1 kmEast (100°)16.7 km/hMostly Cloudy
9:58 AM28.5 °C24.8 °C80 %1012.9 hPa16.1 kmEast (100°)18.5 km/hMostly Cloudy
10:53 AM29 °C25 °C79 %1013.2 hPa16.1 kmESE (120°)14.8 km/hMostly Cloudy
10:58 AM29 °C24.8 °C78 %1012.2 hPa16.1 kmEast (100°)16.7 km/hScattered Clouds
11:49 AM28 °C24 °C79 %1013.2 hPa12.9 kmSSE (150°)18.5 km/hRainLight Rain
11:54 AM27 °C25 °C89 %1013.2 hPa6.4 kmESE (110°)11.1 km/hRainRain
11:58 AM27.1 °C25.1 °C89 %1012.2 hPa4.8 kmEast (100°)11.1 km/h0.51 mmRainRain
12:05 PM27 °C26 °C94 %1012.9 hPa12.9 kmEast (90°)9.3 km/hMostly Cloudy
12:10 PM28 °C26 °C89 %1012.9 hPa16.1 kmESE (120°)14.8 km/hMostly Cloudy
12:15 PM28 °C26 °C89 %1012.9 hPa16.1 kmESE (120°)13 km/hMostly Cloudy
12:20 PM28 °C26 °C89 %1012.9 hPa16.1 kmEast (100°)16.7 km/hMostly Cloudy
12:58 PM29.2 °C25.1 °C78 %1011.2 hPa16.1 kmEast (100°)18.5 km/h0.51 mmScattered Clouds
1:43 PM29 °C25 °C79 %1011.5 hPa16.1 kmESE (120°)18.5 km/hMostly Cloudy
1:48 PM29 °C25 °C79 %1011.5 hPa16.1 kmESE (120°)20.4 km/hScattered Clouds
1:53 PM29 °C25 °C79 %1011.5 hPa16.1 kmEast (100°)18.5 km/hMostly Cloudy
1:58 PM28.9 °C25 °C79 %1010.5 hPa16.1 kmESE (110°)16.7 km/hMostly Cloudy
2:33 PM29 °C25 °C79 %1011.2 hPa16.1 kmESE (110°)16.7 km/hMostly Cloudy
2:38 PM29 °C24 °C74 %1011.2 hPa16.1 kmESE (120°)22.2 km/hScattered Clouds
2:58 PM29.3 °C24.7 °C76 %1010.2 hPa16.1 kmEast (100°)22.2 km/hScattered Clouds
3:13 PM29 °C25 °C79 %1011.2 hPa16.1 kmEast (100°)18.5 km/hMostly Cloudy
3:28 PM29 °C25 °C79 %1011.2 hPa16.1 kmESE (110°)22.2 km/hMostly Cloudy
3:33 PM29 °C25 °C79 %1011.2 hPa16.1 kmESE (110°)18.5 km/hScattered Clouds
3:38 PM29 °C25 °C79 %1011.2 hPa16.1 kmEast (100°)18.5 km/hMostly Cloudy
3:43 PM29 °C25 °C79 %1011.2 hPa16.1 kmEast (100°)18.5 km/hMostly Cloudy
3:58 PM28.9 °C24.8 °C78 %1010.2 hPa16.1 kmESE (110°)20.4 km/hScattered Clouds
4:03 PM29 °C25 °C79 %1011.2 hPa16.1 kmESE (110°)22.2 km/hMostly Cloudy
4:13 PM29 °C25 °C79 %1011.2 hPa16.1 kmESE (120°)22.2 km/hScattered Clouds
4:23 PM29 °C25 °C79 %1010.8 hPa16.1 kmESE (120°)20.4 km/hScattered Clouds
4:33 PM29 °C25 °C79 %1011.2 hPa16.1 kmESE (110°)16.7 km/hMostly Cloudy
4:43 PM28 °C25 °C84 %1011.2 hPa16.1 kmESE (120°)16.7 km/hScattered Clouds
4:58 PM28 °C24 °C79 %1010.2 hPa16.1 kmESE (120°)18.5 km/hMostly Cloudy
5:23 PM28 °C24 °C79 %1011.5 hPa16.1 kmEast (100°)20.4 km/hScattered Clouds
5:28 PM28 °C24 °C79 %1011.5 hPa16.1 kmESE (110°)14.8 km/hScattered Clouds
5:33 PM28 °C25 °C84 %1011.5 hPa16.1 kmEast (100°)16.7 km/hScattered Clouds
5:38 PM28 °C24 °C79 %1011.5 hPa16.1 kmEast (90°)18.5 km/hMostly Cloudy
5:43 PM28 °C24 °C79 %1011.9 hPa16.1 kmEast (100°)16.7 km/hMostly Cloudy
5:48 PM27 °C24 °C84 %1011.9 hPa16.1 kmEast (100°)18.5 km/hScattered Clouds
5:53 PM27 °C24 °C84 %1011.9 hPa16.1 kmEast (100°)13 km/hMostly Cloudy
5:58 PM27.5 °C24.4 °C83 %1011.2 hPa16.1 kmEast (100°)16.7 km/hMostly Cloudy
6:33 PM27 °C24 °C84 %1012.5 hPa16.1 kmEast (100°)16.7 km/hMostly Cloudy
6:38 PM27 °C24 °C84 %1012.5 hPa16.1 kmEast (100°)20.4 km/hScattered Clouds
6:58 PM27.1 °C24.6 °C86 %1011.9 hPa16.1 kmEast (100°)16.7 km/hPartly Cloudy
7:04 PM27 °C25 °C89 %1012.9 hPa16.1 kmEast (100°)16.7 km/hRainLight Rain
7:16 PM27 °C25 °C89 %1012.9 hPa16.1 kmEast (100°)18.5 km/hScattered Clouds
7:58 PM26.8 °C24.6 °C88 %1012.9 hPa16.1 kmEast (100°)18.5 km/h0 mmScattered Clouds
8:13 PM27 °C25 °C89 %1013.5 hPa16.1 kmEast (90°)18.5 km/hMostly Cloudy
8:18 PM27 °C25 °C89 %1013.9 hPa16.1 kmEast (90°)20.4 km/hMostly Cloudy
8:23 PM27 °C25 °C89 %1013.9 hPa16.1 kmEast (90°)18.5 km/hMostly Cloudy
8:58 PM26.8 °C24.5 °C87 %1013.2 hPa16.1 kmEast (90°)22.2 km/hMostly Cloudy
9:03 PM27 °C24 °C84 %1014.2 hPa16.1 kmEast (90°)20.4 km/hScattered Clouds
9:58 PM26.8 °C24.3 °C86 %1013.9 hPa16.1 kmEast (80°)24.1 km/hScattered Clouds
10:03 PM27 °C24 °C84 %1014.9 hPa16.1 kmEast (80°)22.2 km/hMostly Cloudy
10:58 PM27 °C24 °C84 %1013.9 hPa16.1 kmEast (90°)20.4 km/hScattered Clouds
11:03 PM27 °C24 °C84 %1014.9 hPa16.1 kmEast (90°)16.7 km/hMostly Cloudy
11:18 PM27 °C24 °C84 %1014.6 hPa16.1 kmEast (100°)18.5 km/hMostly Cloudy
11:23 PM27 °C24 °C84 %1014.6 hPa16.1 kmEast (90°)20.4 km/hMostly Cloudy
11:38 PM27 °C24 °C84 %1014.6 hPa16.1 kmEast (100°)20.4 km/hScattered Clouds
11:53 PM27 °C24 °C84 %1014.2 hPa16.1 kmEast (90°)22.2 km/hMostly Cloudy
11:58 PM26.7 °C24.4 °C87 %1013.2 hPa16.1 kmEast (90°)20.4 km/hMostly Cloudy
Hourly data recorded from PGUA, located 0 kilometers away from Pyga Beach, Guam







STORIES FROM OUR PARTNERS